Regional Weather Roundup
Issued by NWS Northern Indiana

Home | Current Version | Previous Version | Text Only | Print | Product List | Glossary Off
Versions: 1 2 3 4 5 6 7 8 9 10 11 12 13 14 15 16 17 18 19 20 21 22 23 24 25 26 27 28 29 30 31 32 33 34 35 36 37 38 39 40 41 42 43 44 45 46 47 48 49 50

000
ASUS43 KIWX 280500
RWRIWX

KIWX WEATHER ROUNDUP
NATIONAL WEATHER SERVICE NORTHERN INDIANA
100 AM EDT SUN AUG 28 2016

NOTE: "FAIR" INDICATES FEW OR NO CLOUDS BELOW 12,000 FEET WITH NO
SIGNIFICANT WEATHER AND/OR OBSTRUCTIONS TO VISIBILITY.

* THESE STATIONS ARE NOT UNDER NWS QUALITY CONTROL. THEY ALSO MAY NOT
  REPORT WEATHER SUCH AS PRECIPITATION OR FOG.

INZ001>027-280600-
NORTHERN INDIANA

CITY           SKY/WX    TMP DP  RH WIND       PRES   REMARKS
KNOX*          PTCLDY    72  59  64 CALM      30.10R
SOUTH BEND     PTCLDY    74  72  93 SW3       30.11S
GOSHEN         CLEAR     73  69  87 S5        30.12R
MONTICELLO*    CLEAR     73  69  87 CALM      30.11R
ANGOLA*        CLEAR     70  63  78 CALM      30.14R
FORT WAYNE     PTCLDY    71  69  93 S3        30.14R
PERU/GRISSOM   PTCLDY    73  72  99 S2        30.12R

$$
INZ028>050-280600-
CENTRAL INDIANA

CITY           SKY/WX    TMP DP  RH WIND       PRES   REMARKS
LAFAYETTE      CLOUDY    72  71  97 NW3       30.11R
KOKOMO*        PTCLDY    72  70  94 S3        30.12S
MUNCIE*        PTCLDY    75  71  87 S5        30.14S
INDIANAPOLIS   CLOUDY    76  73  91 S8        30.13R

$$
MIZ043>046-050>051-056>058-064>065-071>073-077>080-280600-
SOUTHWEST LOWER MICHIGAN

CITY           SKY/WX    TMP DP  RH WIND       PRES   REMARKS
BATTLE CREEK   CLEAR     70  70 100 S8        30.12S
BENTON HARBOR  CLOUDY    75  71  87 CALM      30.10R
COLDWATER*     CLEAR     71  71 100 CALM      30.13S FOG
HILLSDALE*     MOCLDY    70  69  96 CALM      30.14S FOG
HOLLAND        PTCLDY    75  72  90 SW8       30.09S
GRAND RAPIDS   MOCLDY    72  68  87 S5        30.09F
KALAMAZOO      CLEAR     74  70  87 S3        30.11S
STURGIS*       CLEAR     71  69  95 SE3       30.12R

$$
OHZ001>008-015>018-024>025-280600-
NORTHWEST OHIO

CITY           SKY/WX    TMP DP  RH WIND       PRES   REMARKS
DEFIANCE       CLOUDY    73  70  90 CALM      30.13S FOG
FINDLAY        CLEAR     70  67  90 S3        30.12F
TOLEDO EXPRESS CLEAR     70  70 100 CALM      30.13S
TOLEDO METCALF CLEAR     71  70  96 CALM      30.14S FOG
LIMA           PTCLDY    71  70  96 S6        30.14F

$$
AND FOR LAKE MICHIGAN COASTAL AND OPEN LAKE BUOY OBSERVATIONS

STATION/POSITION TEMP    WIND        PRES    VSBY  WAVE
                 AIR SEA DIR/SP/G                  HT/PER
                 (F)     (DEG/KT/KT) (MB)    (MI)  (FT/S)
CALUMET HARBOR    77     210/  3/  3 1018.2R
MICHIGAN CITY     78     170/ 10/ 11   N/A
BURNS HARBOR      78     190/  6/ 11 1019.3R
SAINT JOSEPH      78     190/  6/  9 1019.6R
4 MI NW BRIDGMAN  77 75  190/  8/ 10 1018.3R         1/ 2
MICHIGAN CITY     77 76  190/  6/  6   N/A           1

$$
&&




USA.gov is the U.S. government's official web portal to all federal, state and local government web resources and services.